Location: Chevoux
(46.3801°N, 4.9476°E)
Time: 21:24:39
(UTC+00:00)

DMSP B5D1-3 - Pass Details

Date: 28 January 2021
Orbit: 767 x 780 km, 98.5° (Epoch: 04 March)

Event Time Altitude Azimuth Distance (km) Brightness Sun altitude
Rises 18:21:33 0° 16° (NNE) 3,250 7.5 -17.7°
Reaches altitude 10° 18:23:54 10° 20° (NNE) 2,319 6.7 -18.1°
Maximum altitude 18:28:58 64° 102° (ESE) 851 4.4 -19.0°
Drops below altitude 10° 18:34:01 10° 184° (S) 2,308 7.1 -19.9°
Sets 18:36:21 0° 187° (S) 3,233 7.9 -20.3°
